DIPPU ENSO-ENSO

Flight info

Callsign DIPPU
Flight time 0h 6m
Altitude 9500
Route VFR
Aircraft AEST/L-S/S

Departure

Time 2026-04-28 08:07
Airport Stord Airport, Sørstokken (ENSO)

Arrival

Time 2026-04-28 08:13
Airport Stord Airport, Sørstokken (ENSO)
Time Latitude Longitude Altitude Speed Heading
2026-04-28 07:58 59.79312 5.34132 162 ft 0 kts
2026-04-28 08:02 59.79320 5.34119 162 ft 6 kts 269°
2026-04-28 08:03 59.79267 5.34166 163 ft 15 kts 139°
2026-04-28 08:03 59.79199 5.34119 162 ft 11 kts 213°
2026-04-28 08:03 59.79101 5.34215 161 ft 21 kts 143°
2026-04-28 08:03 59.78956 5.34422 157 ft 29 kts 145°
2026-04-28 08:04 59.78783 5.34663 159 ft 31 kts 144°
2026-04-28 08:04 59.78665 5.34810 160 ft 6 kts 122°
2026-04-28 08:04 59.78678 5.34817 160 ft 5 kts 304°
2026-04-28 08:04 59.78690 5.34794 159 ft 0 kts 320°
2026-04-28 08:05 59.78691 5.34792 159 ft 6 kts 320°
2026-04-28 08:06 59.79024 5.34334 173 ft 95 kts 326°
2026-04-28 08:06 59.79627 5.33466 381 ft 117 kts 324°
2026-04-28 08:06 59.80334 5.32539 594 ft 134 kts 327°
2026-04-28 08:06 59.81172 5.31479 744 ft 147 kts 326°
2026-04-28 08:07 59.82069 5.30354 919 ft 157 kts 328°
2026-04-28 08:07 59.83016 5.29207 1131 ft 161 kts 329°
2026-04-28 08:07 59.83982 5.28061 1347 ft 162 kts 327°
2026-04-28 08:07 59.84834 5.26662 1650 ft 159 kts 307°
2026-04-28 08:08 59.85185 5.24506 1587 ft 174 kts 272°
2026-04-28 08:08 59.85037 5.22902 1536 ft 184 kts 251°
2026-04-28 08:08 59.84267 5.20823 1485 ft 192 kts 220°
2026-04-28 08:08 59.83046 5.19748 1476 ft 194 kts 190°
2026-04-28 08:09 59.81714 5.19996 1493 ft 195 kts 160°
2026-04-28 08:09 59.80533 5.21345 1483 ft 198 kts 145°
2026-04-28 08:09 59.79403 5.22920 1487 ft 198 kts 144°
2026-04-28 08:09 59.78754 5.23829 1490 ft 198 kts 144°
2026-04-28 08:10 59.77751 5.25250 1490 ft 200 kts 144°
2026-04-28 08:10 59.77118 5.26163 1490 ft 197 kts 144°
2026-04-28 08:10 59.76027 5.27750 1419 ft 198 kts 144°
2026-04-28 08:10 59.74976 5.29443 1695 ft 181 kts 133°
2026-04-28 08:11 59.74400 5.31632 1687 ft 190 kts 101°
2026-04-28 08:11 59.74479 5.34366 1330 ft 206 kts 73°
2026-04-28 08:11 59.75172 5.36829 1197 ft 207 kts 46°
2026-04-28 08:11 59.76374 5.38200 854 ft 198 kts 10°
2026-04-28 08:12 59.77490 5.37331 713 ft 165 kts 306°
2026-04-28 08:12 59.77946 5.35598 581 ft 115 kts 309°
2026-04-28 08:12 59.78560 5.34926 227 ft 98 kts 333°
2026-04-28 08:12 59.79025 5.34321 157 ft 57 kts 325°
2026-04-28 08:13 59.79191 5.34094 163 ft 1 kts 355°
2026-04-28 08:13 59.79198 5.34120 162 ft 3 kts 107°
2026-04-28 08:13 59.79245 5.34194 162 ft 13 kts 357°
2026-04-28 08:13 59.79308 5.34133 162 ft 0 kts 328°